Stations météo

réclame
Mon MeteoGroup
Twenthe, Pays-Bas (6290): Température de l'air & dewpoint: 19.06.2018 21:00:00 - 25.06.2018 21:00:00 (CEST)Twenthe, Pays-Bas (6290): Température de l'air 5cm: 19.06.2018 21:00:00 - 25.06.2018 21:00:00 (CEST)Twenthe, Pays-Bas (6290): Vitesse du vent & gusts: 19.06.2018 21:00:00 - 25.06.2018 21:00:00 (CEST)Twenthe, Pays-Bas (6290): Direction du vent: 19.06.2018 21:00:00 - 25.06.2018 21:00:00 (CEST)Twenthe, Pays-Bas (6290): reduced air pressure: 19.06.2018 21:00:00 - 25.06.2018 21:00:00 (CEST)Twenthe, Pays-Bas (6290): visibility: 19.06.2018 21:00:00 - 25.06.2018 21:00:00 (CEST)Twenthe, Pays-Bas (6290): Quantités de précipitations: 19.06.2018 21:00:00 - 25.06.2018 21:00:00 (CEST)
Date & Time tt [°C] td [°C] tt 5cm [°C] ff [km/h] ff [knt] fx [km/h] fx [knt] dd ppp [hPa] vv [km] rr [mm]
25.06.2018 21:00:00 18,1 11,4 17,7 14 8 25 14 N 1024,5 36 0,0
25.06.2018 20:00:00 20,2 11,8 20,7 14 8 22 12 NNW 1024,0 40 0,0
25.06.2018 19:00:00 20,8 12,0 22,4 18 10 29 16 NW 1024,0 31 0,0
25.06.2018 18:00:00 21,1 11,7 23,7 18 10 32 18 NW 1024,1 38 0,0
25.06.2018 17:00:00 21,5 11,5 24,0 18 10 32 18 NW 1024,3 39 0,0
25.06.2018 16:00:00 21,2 10,9 23,8 18 10 29 16 WNW 1024,3 27 0,0
25.06.2018 15:00:00 20,5 11,3 23,1 14 8 29 16 WNW 1024,4 28 0,0
25.06.2018 14:00:00 19,1 11,4 21,2 18 10 32 18 WNW 1024,5 38 0,0
25.06.2018 13:00:00 18,8 11,7 21,6 18 10 29 16 NW 1024,6 31 0,0
25.06.2018 12:00:00 18,1 12,3 19,8 18 10 29 16 NW 1024,7 26 0,0
25.06.2018 11:00:00 16,1 12,7 17,0 11 6 22 12 NW 1024,7 27 0,0
25.06.2018 10:00:00 15,5 12,6 15,5 11 6 18 10 NW 1024,3 18 0,0
25.06.2018 09:00:00 15,0 12,5 15,3 11 6 18 10 NNW 1024,2 18 0,0
25.06.2018 08:00:00 14,2 12,5 14,6 11 6 18 10 NNW 1023,8 14 0,0
25.06.2018 07:00:00 13,7 12,6 13,6 11 6 18 10 NW 1023,4 10 0,0
25.06.2018 06:00:00 13,3 12,5 13,1 7 4 18 10 NW 1023,1 8 0,0
25.06.2018 05:00:00 13,1 12,4 13,0 11 6 14 8 NW 1022,7 7 0,0
25.06.2018 04:00:00 13,0 12,4 12,9 11 6 18 10 NW 1022,6 6 0,0
25.06.2018 03:00:00 12,9 12,3 12,8 7 4 14 8 WNW 1022,7 8 0,0
25.06.2018 02:00:00 12,9 12,4 12,9 7 4 22 12 NNW 1022,8 4,0 0,0
25.06.2018 01:00:00 13,1 12,6 13,0 11 6 22 12 NW 1022,8 4,9 0,0
25.06.2018 00:00:00 13,2 12,7 13,1 11 6 18 10 NW 1022,8 5 0,1
24.06.2018 23:00:00 13,4 12,5 13,2 7 4 18 10 NW 1022,9 12 0,0
24.06.2018 22:00:00 13,6 12,8 13,4 7 4 14 8 NW 1022,6 18 0,0
24.06.2018 21:00:00 13,9 12,9 14,0 7 4 25 14 N 1022,3 19 0,0
24.06.2018 20:00:00 14,3 13,2 14,5 11 6 25 14 NNW 1022,4 11 0,2
24.06.2018 19:00:00 14,3 13,5 14,9 7 4 22 12 WNW 1022,4 8 0,3
24.06.2018 18:00:00 14,4 13,1 14,6 11 6 25 14 WNW 1022,6 10 0,1
24.06.2018 17:00:00 14,1 12,8 14,5 11 6 32 18 WNW 1023,0 4,6 0,0
24.06.2018 16:00:00 15,1 11,1 15,3 14 8 25 14 NNW 1022,8 33 0,0
24.06.2018 15:00:00 15,2 10,6 15,5 14 8 22 12 WNW 1023,1 39 0,0
24.06.2018 14:00:00 15,1 10,6 15,7 14 8 25 14 WNW 1023,3 44 0,0
24.06.2018 13:00:00 14,8 10,6 14,8 14 8 22 12 NW 1023,6 38 0,0
24.06.2018 12:00:00 14,4 9,8 15,7 14 8 22 12 WNW 1023,7 20 0,0
24.06.2018 11:00:00 14,1 9,1 14,7 14 8 22 12 NW 1023,7 32 0,0
24.06.2018 10:00:00 13,9 8,8 14,9 14 8 22 12 NW 1023,6 35 0,0
24.06.2018 09:00:00 13,4 9,7 13,8 14 8 18 10 NW 1023,4 23 0,0
24.06.2018 08:00:00 13,0 9,6 13,4 11 6 18 10 NW 1023,2 24 0,0
24.06.2018 07:00:00 12,3 9,6 12,1 7 4 11 6 NW 1023,1 27 0,0
24.06.2018 06:00:00 11,4 9,2 10,1 4 2 7 4 WNW 1022,7 26 0,0
24.06.2018 05:00:00 11,1 9,2 9,7 4 2 7 4 NW 1022,8 25 0,0
24.06.2018 04:00:00 10,6 9,8 9,7 4 2 7 4 NW 1022,9 21 0,0
24.06.2018 03:00:00 10,2 9,2 8,5 4 2 7 4 NNW 1023,0 23 0,0
24.06.2018 02:00:00 9,3 8,6 7,8 4 2 4 2 ENE 1023,5 23 0,0
24.06.2018 01:00:00 10,2 9,2 6,8 0 0 4 2 N 1024,0 18 0,0
24.06.2018 00:00:00 10,4 9,0 6,1 0 0 4 2 N 1024,3 34 0,0
23.06.2018 23:00:00 12,0 8,9 8,5 4 2 7 4 NW 1024,4 36 0,0
23.06.2018 22:00:00 13,4 8,7 10,6 4 2 11 6 NW 1024,3 41 0,0
23.06.2018 21:00:00 14,7 8,7 13,9 11 6 25 14 NW 1024,2 47 0,0
23.06.2018 20:00:00 17,1 9,0 16,5 14 8 29 16 NW 1024,2 43 0,0
23.06.2018 19:00:00 17,4 8,6 17,3 18 10 29 16 NW 1024,5 39 0,0
23.06.2018 18:00:00 18,1 8,7 19,0 18 10 32 18 NW 1024,8 35 0,0
23.06.2018 17:00:00 17,5 8,2 18,1 22 12 36 19 NW 1025,1 41 0,0
23.06.2018 16:00:00 19,2 9,0 19,9 22 12 36 19 NW 1025,3 38 0,0
23.06.2018 15:00:00 18,0 8,9 19,3 22 12 36 19 NW 1025,7 36 0,0
23.06.2018 14:00:00 16,3 8,3 17,3 25 14 43 23 NW 1026,1 33 0,0
23.06.2018 13:00:00 16,6 8,0 18,2 25 14 40 21 WNW 1026,1 32 0,0
23.06.2018 12:00:00 15,7 7,6 17,2 25 14 40 21 NW 1026,1 29 0,0
23.06.2018 11:00:00 15,7 8,6 16,2 22 12 40 21 NW 1026,1 27 0,0
23.06.2018 10:00:00 14,5 8,5 16,0 22 12 40 21 NW 1026,1 25 0,0
23.06.2018 09:00:00 13,7 8,1 14,7 22 12 36 19 NW 1026,2 22 0,0
23.06.2018 08:00:00 13,3 8,9 13,7 22 12 29 16 NW 1025,9 20 0,0
23.06.2018 07:00:00 11,5 9,2 11,2 14 8 25 14 W 1026,1 16 0,0
23.06.2018 06:00:00 10,2 9,0 10,1 11 6 22 12 W 1026,1 8 0,0
23.06.2018 05:00:00 10,3 8,5 10,0 11 6 18 10 W 1026,1 11 0,0
23.06.2018 04:00:00 10,5 7,6 10,0 11 6 22 12 W 1026,2 15 0,0
23.06.2018 03:00:00 10,2 7,2 9,0 11 6 14 8 W 1026,5 15 0,0
23.06.2018 02:00:00 10,4 6,9 9,5 11 6 22 12 WNW 1026,7 15 0,0
23.06.2018 01:00:00 10,9 7,4 10,0 14 8 25 14 WNW 1026,8 14 0,0
23.06.2018 00:00:00 11,8 8,1 11,4 14 8 29 16 WNW 1026,8 14 0,0
22.06.2018 23:00:00 12,2 7,9 11,7 14 8 32 18 WNW 1026,7 17 0,0
22.06.2018 22:00:00 12,7 7,8 12,4 18 10 29 16 NW 1026,3 21 0,0
22.06.2018 21:00:00 12,9 7,7 12,2 14 8 32 18 NW 1026,1 21 0,0
22.06.2018 20:00:00 14,3 7,7 14,6 22 12 36 19 WNW 1026,0 26 0,0
22.06.2018 19:00:00 14,6 7,8 15,5 25 14 40 21 WNW 1025,6 28 0,0
22.06.2018 18:00:00 15,1 7,5 15,6 25 14 36 19 WNW 1025,3 37 0,0
22.06.2018 17:00:00 15,4 8,4 16,6 22 12 36 19 NW 1025,1 35 0,0
22.06.2018 16:00:00 14,0 9,5 13,3 18 10 36 19 NNW 1025,1 28 0,1
22.06.2018 15:00:00 15,5 8,3 16,8 25 14 43 23 NW 1024,5 27 0,0
22.06.2018 14:00:00 15,8 9,7 15,6 22 12 47 25 NW 1024,3 34 0,1
22.06.2018 13:00:00 14,2 9,2 14,7 25 14 47 25 NW 1024,1 15 0,0
22.06.2018 12:00:00 16,0 9,3 16,9 29 16 43 23 NW 1023,5 37 0,0
22.06.2018 11:00:00 14,9 9,9 13,5 25 14 40 21 NW 1023,1 27 0,1
22.06.2018 10:00:00 11,5 9,3 11,9 22 12 40 21 NW 1022,9 6 0,9
22.06.2018 09:00:00 11,9 9,1 11,5 22 12 36 19 NW 1022,3 13 0,0
22.06.2018 08:00:00 10,9 9,3 10,5 18 10 29 16 W 1021,7 14 0,2
22.06.2018 07:00:00 9,8 8,2 9,4 18 10 36 19 WNW 1021,3 9 1,7
22.06.2018 06:00:00 10,3 7,9 10,0 18 10 29 16 W 1020,6 18 0,0
22.06.2018 05:00:00 10,2 9,1 9,9 14 8 40 21 W 1021,0 10 0,2
22.06.2018 04:00:00 10,2 8,8 9,9 18 10 29 16 WSW 1021,2 20 0,0
22.06.2018 03:00:00 10,1 8,5 9,5 18 10 25 14 W 1021,5 18 0,0
22.06.2018 02:00:00 9,5 8,6 9,2 11 6 22 12 WSW 1022,1 14 0,1
22.06.2018 01:00:00 9,6 8,4 9,3 14 8 36 19 W 1022,5 37 0,7
22.06.2018 00:00:00 9,7 7,8 9,3 18 10 40 21 W 1022,7 10 0,4
21.06.2018 23:00:00 10,1 7,6 8,9 14 8 25 14 W 1022,6 25 0,0
21.06.2018 22:00:00 10,5 7,9 9,6 11 6 25 14 W 1022,6 28 0,0
21.06.2018 21:00:00 11,4 7,7 10,8 14 8 47 25 WNW 1022,4 38 1,9
21.06.2018 20:00:00 13,5 7,6 12,8 18 10 40 21 NW 1022,0 42 0,0
21.06.2018 19:00:00 12,4 7,7 12,7 32 18 61 33 NW 1021,9 15 0,0
21.06.2018 18:00:00 15,3 9,0 15,9 29 16 47 25 WNW 1021,0 34 0,5
21.06.2018 17:00:00 15,9 8,1 16,4 25 14 50 27 WNW 1020,3 29 0,3
21.06.2018 16:00:00 14,7 6,9 14,1 29 16 54 29 WNW 1020,1 36 0,2
21.06.2018 15:00:00 15,7 6,0 16,5 32 18 58 31 WNW 1019,4 34 0,0
21.06.2018 14:00:00 16,0 5,2 16,1 32 18 58 31 WNW 1018,8 32 0,0
21.06.2018 13:00:00 16,2 6,0 16,8 36 19 54 29 W 1017,9 29 0,0
21.06.2018 12:00:00 16,7 8,2 15,7 29 16 58 31 WNW 1017,2 36 0,0
21.06.2018 11:00:00 15,4 10,6 16,1 25 14 43 23 W 1016,2 37 0,0
21.06.2018 10:00:00 15,5 12,6 15,2 18 10 29 16 W 1015,3 27 0,0
21.06.2018 09:00:00 14,3 12,5 14,2 14 8 32 18 NW 1014,8 18 0,0
21.06.2018 08:00:00 14,9 13,8 14,6 14 8 32 18 NW 1014,1 18 0,0
21.06.2018 07:00:00 15,6 14,8 15,5 14 8 25 14 WNW 1013,8 9 2,5
21.06.2018 06:00:00 16,2 15,4 16,1 14 8 22 12 WNW 1013,5 6 1,1
21.06.2018 05:00:00 16,9 14,9 16,5 11 6 18 10 WSW 1013,7 19 0,0
21.06.2018 04:00:00 16,7 14,8 15,5 11 6 14 8 WSW 1014,4 22 0,0
21.06.2018 03:00:00 15,5 13,6 13,8 7 4 14 8 SW 1014,8 44 0,0
21.06.2018 02:00:00 15,5 13,8 11,0 11 6 14 8 SW 1015,5 34 0,0
21.06.2018 01:00:00 15,3 13,8 8,7 4 2 7 4 SW 1015,7 36 0,0
21.06.2018 00:00:00 17,1 14,0 10,2 4 2 11 6 WSW 1016,6 47 0,0
20.06.2018 23:00:00 19,0 14,1 15,1 11 6 14 8 SW 1016,7 8 0,0
20.06.2018 22:00:00 20,6 14,0 18,6 7 4 22 12 W 1016,8 47 0,0
20.06.2018 21:00:00 23,6 13,6 23,0 14 8 32 18 WSW 1016,7 46 0,0
20.06.2018 20:00:00 25,1 14,2 25,2 22 12 29 16 WSW 1017,1 31 0,0
20.06.2018 19:00:00 25,6 15,7 26,7 18 10 36 19 WSW 1017,6 17 0,0
20.06.2018 18:00:00 25,6 15,0 27,4 22 12 32 18 SW 1018,2 23 0,0
20.06.2018 17:00:00 25,4 15,4 28,2 22 12 32 18 WSW 1018,8 31 0,0
20.06.2018 16:00:00 25,0 16,1 28,5 14 8 29 16 SW 1019,1 25 0,0
20.06.2018 15:00:00 24,6 16,2 27,9 18 10 29 16 SW 1019,7 21 0,0
20.06.2018 14:00:00 24,1 15,9 27,5 18 10 32 18 SW 1020,0 26 0,0
20.06.2018 13:00:00 22,9 15,6 24,1 22 12 32 18 WSW 1020,8 28 0,0
20.06.2018 12:00:00 21,7 15,2 23,2 18 10 36 19 SW 1021,2 24 0,0
20.06.2018 11:00:00 20,5 15,1 21,3 18 10 29 16 SSW 1021,6 28 0,0
20.06.2018 10:00:00 19,8 14,9 21,1 18 10 29 16 WSW 1021,7 21 0,0
20.06.2018 09:00:00 19,7 16,0 20,1 11 6 22 12 SW 1021,8 14 0,0
20.06.2018 08:00:00 18,3 15,7 18,5 11 6 18 10 WSW 1022,0 9 0,0
20.06.2018 07:00:00 17,9 15,8 17,6 11 6 18 10 SW 1022,0 8 0,0
20.06.2018 06:00:00 17,2 15,6 16,1 11 6 14 8 SSW 1022,0 8 0,0
20.06.2018 05:00:00 14,9 14,5 11,5 4 2 14 8 SW 1022,2 5 0,0
20.06.2018 04:00:00 16,2 14,8 14,6 7 4 11 6 S 1022,4 11 0,0
20.06.2018 03:00:00 17,8 15,5 17,3 7 4 11 6 S 1022,7 14 0,0
20.06.2018 02:00:00 17,9 15,4 17,0 7 4 11 6 S 1023,2 18 0,0
20.06.2018 01:00:00 17,9 15,2 16,8 7 4 7 4 SSW 1023,4 22 0,0
20.06.2018 00:00:00 18,0 15,2 17,3 7 4 7 4 SW 1023,6 25 0,0
19.06.2018 23:00:00 18,4 15,3 17,8 4 2 14 8 SW 1023,8 25 0,0
19.06.2018 22:00:00 18,7 15,5 18,1 7 4 7 4 SW 1023,6 26 0,0
19.06.2018 21:00:00 19,3 15,5 19,2 7 4 18 10 SW 1023,3 27 0,0

tt = Température de l'air
td = dewpoint
tt 5cm = Température de l'air 5cm
ff = Vitesse du vent
fx = gusts
dd = Direction du vent
ppp = reduced air pressure
vv = visibility
rr = Quantités de précipitations

stations d'obs. à proximité